Flag for USA

Past Weather in Ken Malloy Harbor Regional Park, California, USA — Yesterday and Last 2 Weeks

Now
57 °F

Passing clouds.


Feels Like: 57 °F
Forecast: 70 / 51 °F
Wind: No wind

Location: Los Angeles / USC Campus Downtown

Current Time: Mar 24, 2019 at 3:00:55 am

Latest Report: Mar 24, 2019 at 1:54 am


Visibility: 8 mi

Pressure: 30.14 "Hg

Humidity: 83%

Dew Point: 52 °F

Location of Ken Malloy Harbor Regional ParkLocation

Past Weather in Ken Malloy Harbor Regional Park — Graph

°F

Ken Malloy Harbor Regional Park Temperature Yesterday

Maximum temperature yesterday: 66 °F (at 12:47 pm)
Minimum temperature yesterday: 55 °F (at 1:47 am)
Average temperature yesterday: 60 °F

High & Low Weather Summary for the Past Weeks

 TemperatureHumidityPressure
High84 °F (Mar 17, 12:47 pm)90% (Mar 19, 4:47 am)30.20 "Hg (Mar 19, 4:47 am)
Low49 °F (Mar 10, 3:47 am)12% (Mar 15, 12:47 pm)29.71 "Hg (Mar 12, 4:47 pm)
Average60 °F57%30.01 "Hg
* Reported Mar 9 12:47 am — Mar 24 1:54 am, Ken Malloy Harbor Regional Park. Weather by CustomWeather, © 2019

Note: Actual official high and low records may vary slightly from our data, if they occured in-between our weather recording intervals... More about our weather records

Advertising

Ken Malloy Harbor Regional Park Weather History for the Previous 24 Hours

Scroll right to see more
 ConditionsComfort  
Time TempWeatherWind HumidityBarometerVisibility
1:54 am
Sun, Mar 24
57 °FPassing clouds.No wind83%30.14 "Hg8 mi
1:47 am57 °FPassing clouds.No wind83%30.13 "Hg9 mi
1:16 am57 °FMostly cloudy.No wind87%30.14 "Hg10 mi
12:55 am57 °FPassing clouds.No wind87%30.14 "Hg9 mi
11:47 pm
Sat, Mar 23
57 °FClear.No wind87%30.12 "Hg10 mi
10:47 pm57 °FClear.No wind87%30.13 "Hg10 mi
9:47 pm58 °FClear.3 mph81%30.13 "Hg10 mi
8:47 pm58 °FPassing clouds.No wind81%30.14 "Hg10 mi
8:35 pm59 °FPassing clouds.No wind81%30.14 "Hg10 mi
8:02 pm59 °FPassing clouds.3 mph81%30.13 "Hg10 mi
6:47 pm60 °FPartly sunny.5 mph75%30.11 "Hg10 mi
5:47 pm62 °FPartly sunny.7 mph70%30.11 "Hg10 mi
4:47 pm64 °FPartly sunny.6 mph63%30.10 "Hg10 mi
3:47 pm64 °FPartly sunny.9 mph56%30.11 "Hg10 mi
2:47 pm65 °FPassing clouds.5 mph61%30.12 "Hg10 mi
1:47 pm66 °FPassing clouds.No wind56%30.13 "Hg10 mi
12:47 pm66 °FOvercast.5 mph54%30.15 "Hg10 mi
11:47 am64 °FMostly cloudy.No wind56%30.16 "Hg10 mi
11:30 am62 °FMore clouds than sun.No wind60%30.16 "Hg10 mi
11:13 am61 °FMostly cloudy.No wind65%30.17 "Hg10 mi
10:47 am63 °FPartly sunny.No wind58%30.16 "Hg10 mi
10:29 am61 °FPartly sunny.3 mph65%30.17 "Hg10 mi
10:23 am62 °FBroken clouds.No wind62%30.16 "Hg10 mi
9:47 am60 °FOvercast.No wind67%30.17 "Hg10 mi
9:07 am58 °FOvercast.No wind72%30.17 "Hg10 mi
8:47 am57 °FOvercast.No wind74%30.16 "Hg10 mi
7:47 am57 °FOvercast.3 mph74%30.15 "Hg10 mi
6:47 am57 °FOvercast.5 mph74%30.14 "Hg10 mi
5:47 am57 °FMostly cloudy.3 mph74%30.13 "Hg10 mi
5:22 am57 °FMostly cloudy.5 mph74%30.13 "Hg10 mi
4:47 am57 °FOvercast.3 mph74%30.13 "Hg10 mi
3:47 am57 °FOvercast.No wind81%30.14 "Hg10 mi
Weather by CustomWeather, © 2019

See weather overview